| time (UTC) | temp F | wind direction | speed MPH | gust MPH | rain 1hr in | rain 24hr in | rain mn in | humidity % | barometer mb |
| 20260507024543 | 48 | 163 | 0.0 | 0.0 | 0.00 | 0.47 | 0.47 | 1 | 1009.1 |
| 20260507023036 | 48 | 163 | 0.0 | 0.0 | 0.01 | 0.47 | 0.47 | 1 | 1009.0 |
| 20260507021528 | 48 | 163 | 0.0 | 0.0 | 0.01 | 0.47 | 0.47 | 1 | 1008.9 |
| 20260507020024 | 48 | 163 | 0.0 | 0.0 | 0.01 | 0.47 | 0.47 | 1 | 1008.9 |
| 20260507014530 | 48 | 163 | 0.0 | 0.0 | 0.02 | 0.47 | 0.47 | 1 | 1008.8 |
| 20260507013015 | 48 | 163 | 0.0 | 0.0 | 0.01 | 0.46 | 0.46 | 1 | 1008.8 |
| 20260507011509 | 48 | 163 | 0.0 | 0.0 | 0.01 | 0.46 | 0.46 | 1 | 1008.8 |
| 20260507010006 | 48 | 163 | 0.0 | 0.0 | 0.01 | 0.46 | 0.46 | 1 | 1008.8 |
| 20260507004600 | 48 | 163 | 0.0 | 0.0 | 0.00 | 0.46 | 0.46 | 1 | 1008.8 |
| 20260507003055 | 48 | 163 | 0.0 | 0.0 | 0.00 | 0.46 | 0.46 | 1 | 1008.9 |
| 20260507001526 | 47 | 163 | 0.0 | 0.0 | 0.00 | 0.46 | 0.46 | 1 | 1008.8 |
| 20260507000026 | 47 | 163 | 0.0 | 0.0 | 0.00 | 0.46 | 0.46 | 1 | 1008.7 |
| 20260506234513 | 47 | 163 | 0.0 | 0.0 | 0.00 | 0.46 | 0.46 | 1 | 1008.7 |
| 20260506233006 | 47 | 163 | 0.0 | 0.0 | 0.00 | 0.46 | 0.46 | 1 | 1008.6 |
| 20260506231501 | 47 | 163 | 0.0 | 0.0 | 0.00 | 0.46 | 0.46 | 1 | 1008.5 |
| 20260506230057 | 47 | 163 | 0.0 | 0.0 | 0.00 | 0.46 | 0.46 | 1 | 1008.5 |
| 20260506224533 | 47 | 163 | 0.0 | 0.0 | 0.00 | 0.46 | 0.46 | 1 | 1008.4 |
| 20260506223028 | 47 | 163 | 0.0 | 0.0 | 0.00 | 0.46 | 0.46 | 1 | 1008.3 |
| 20260506211607 | 47 | 163 | 0.0 | 0.0 | 0.00 | 0.46 | 0.46 | 1 | 1008.1 |
| 20260506210107 | 47 | 163 | 0.0 | 0.0 | 0.00 | 0.46 | 0.46 | 1 | 1008.1 |
| 20260506203017 | 48 | 163 | 0.0 | 0.0 | 0.01 | 0.46 | 0.46 | 1 | 1007.9 |
| 20260506200101 | 50 | 163 | 0.0 | 0.0 | 0.01 | 0.47 | 0.46 | 1 | 1007.6 |
| 20260506194659 | 51 | 163 | 0.0 | 0.0 | 0.01 | 0.47 | 0.46 | 1 | 1007.4 |
| 20260506193020 | 51 | 163 | 0.0 | 0.0 | 0.01 | 0.46 | 0.45 | 1 | 1007.2 |
| 20260506191544 | 52 | 163 | 0.0 | 0.0 | 0.01 | 0.46 | 0.45 | 1 | 1006.9 |
| 20260506190108 | 52 | 163 | 0.0 | 0.0 | 0.01 | 0.46 | 0.45 | 1 | 1006.8 |
| 20260506184533 | 53 | 163 | 0.0 | 0.0 | 0.01 | 0.46 | 0.45 | 1 | 1006.7 |
| 20260506183037 | 54 | 163 | 0.0 | 0.0 | 0.00 | 0.46 | 0.44 | 1 | 1006.6 |
| 20260506181633 | 54 | 163 | 0.0 | 0.0 | 0.00 | 0.46 | 0.44 | 1 | 1006.5 |
| 20260506180106 | 55 | 163 | 0.0 | 0.0 | 0.00 | 0.46 | 0.44 | 1 | 1006.4 |
| 20260506174555 | 55 | 163 | 0.0 | 0.0 | 0.00 | 0.46 | 0.44 | 1 | 1006.2 |
| 20260506173043 | 55 | 236 | 0.0 | 0.0 | 0.00 | 0.46 | 0.44 | 1 | 1006.1 |
| 20260506171547 | 55 | 236 | 0.0 | 0.0 | 0.00 | 0.46 | 0.44 | 1 | 1006.0 |
| 20260506170118 | 55 | 236 | 0.0 | 0.0 | 0.00 | 0.46 | 0.44 | 1 | 1005.8 |
| 20260506164606 | 55 | 236 | 0.0 | 0.0 | 0.00 | 0.46 | 0.44 | 1 | 1005.5 |
| 20260506163119 | 55 | 236 | 0.0 | 0.0 | 0.00 | 0.46 | 0.44 | 1 | 1005.2 |
| 20260506163049 | 55 | 236 | 0.0 | 0.0 | 0.00 | 0.46 | 0.44 | 1 | 1005.2 |
| 20260506161551 | 56 | 236 | 0.0 | 0.0 | 0.00 | 0.46 | 0.44 | 1 | 1005.1 |
| 20260506160041 | 56 | 223 | 0.0 | 0.0 | 0.00 | 0.46 | 0.44 | 5 | 1005.2 |
| 20260506154629 | 57 | 295 | 0.0 | 0.0 | 0.00 | 0.46 | 0.44 | 31 | 1005.4 |
| 20260506153136 | 59 | 329 | 0.0 | 0.0 | 0.00 | 0.46 | 0.44 | 39 | 1004.8 |
| 20260506151531 | 59 | 330 | 0.0 | 0.0 | 0.00 | 0.46 | 0.44 | 45 | 1004.6 |
| 20260506151501 | 59 | 330 | 0.0 | 0.0 | 0.00 | 0.46 | 0.44 | 45 | 1004.7 |
| 20260506150056 | 60 | 330 | 0.0 | 0.0 | 0.00 | 0.46 | 0.44 | 49 | 1004.7 |
| 20260506144621 | 60 | 331 | 0.0 | 0.0 | 0.00 | 0.46 | 0.44 | 46 | 1004.7 |
| 20260506143125 | 59 | 224 | 0.0 | 0.0 | 0.00 | 0.46 | 0.44 | 50 | 1004.8 |
| 20260506140156 | 59 | 265 | 0.0 | 0.0 | 0.00 | 0.46 | 0.44 | 42 | 1004.9 |
| 20260506134532 | 59 | 233 | 0.0 | 0.0 | 0.00 | 0.46 | 0.44 | 35 | 1005.1 |
| 20260506133024 | 58 | 234 | 0.0 | 0.0 | 0.00 | 0.46 | 0.44 | 35 | 1005.3 |
| 20260506131518 | 58 | 235 | 0.0 | 0.0 | 0.00 | 0.46 | 0.44 | 28 | 1005.4 |
| 20260506130014 | 57 | 204 | 0.0 | 0.0 | 0.00 | 0.46 | 0.44 | 21 | 1005.2 |
| 20260506124507 | 57 | 193 | 0.0 | 0.0 | 0.00 | 0.46 | 0.44 | 1 | 1005.2 |
| 20260506123014 | 57 | 238 | 0.0 | 0.0 | 0.01 | 0.46 | 0.44 | 1 | 1005.2 |
| 20260506121627 | 56 | 211 | 0.0 | 0.0 | 0.02 | 0.47 | 0.44 | 1 | 1005.3 |
| 20260506120059 | 56 | 173 | 0.0 | 0.0 | 0.02 | 0.47 | 0.44 | 1 | 1005.4 |
| 20260506114604 | 56 | 222 | 0.0 | 0.0 | 0.02 | 0.47 | 0.44 | 1 | 1005.4 |
| 20260506113049 | 55 | 196 | 0.0 | 0.0 | 0.02 | 0.46 | 0.43 | 1 | 1005.5 |
| 20260506113019 | 55 | 188 | 0.0 | 0.0 | 0.02 | 0.46 | 0.43 | 1 | 1005.5 |
| 20260506111514 | 54 | 228 | 0.0 | 0.0 | 0.02 | 0.46 | 0.43 | 1 | 1005.5 |
| 20260506110010 | 54 | 221 | 0.0 | 0.0 | 0.02 | 0.46 | 0.43 | 1 | 1005.5 |
| 20260506104604 | 54 | 214 | 0.0 | 0.0 | 0.02 | 0.45 | 0.42 | 1 | 1005.6 |
| 20260506103054 | 52 | 265 | 0.0 | 0.0 | 0.02 | 0.44 | 0.41 | 1 | 1005.5 |
| 20260506101624 | 52 | 217 | 0.0 | 0.0 | 0.03 | 0.44 | 0.41 | 1 | 1005.5 |
| 20260506100018 | 52 | 197 | 0.0 | 0.0 | 0.03 | 0.43 | 0.40 | 1 | 1005.4 |
| 20260506094514 | 52 | 261 | 0.0 | 0.0 | 0.04 | 0.43 | 0.39 | 1 | 1005.2 |
| 20260506093009 | 52 | 261 | 0.0 | 0.0 | 0.04 | 0.42 | 0.39 | 1 | 1005.1 |
| 20260506091502 | 51 | 261 | 0.0 | 0.0 | 0.05 | 0.41 | 0.38 | 1 | 1005.0 |
| 20260506090058 | 51 | 253 | 0.0 | 0.0 | 0.06 | 0.40 | 0.37 | 1 | 1004.9 |
| 20260506090010 | 51 | 253 | 0.0 | 0.0 | 0.06 | 0.40 | 0.37 | 1 | 1004.9 |
| 20260506084622 | 51 | 252 | 0.0 | 0.0 | 0.06 | 0.39 | 0.36 | 1 | 1004.8 |
| 20260506083048 | 50 | 269 | 0.0 | 0.0 | 0.06 | 0.38 | 0.35 | 1 | 1004.6 |
| 20260506083012 | 50 | 269 | 0.0 | 0.0 | 0.06 | 0.38 | 0.35 | 1 | 1004.6 |
| 20260506081619 | 50 | 300 | 0.0 | 0.0 | 0.06 | 0.36 | 0.33 | 1 | 1004.5 |
| 20260506073033 | 50 | 242 | 0.0 | 0.0 | 0.07 | 0.31 | 0.28 | 1 | 1004.2 |
| 20260506071601 | 50 | 242 | 0.0 | 0.0 | 0.08 | 0.30 | 0.27 | 1 | 1004.0 |
| 20260506061558 | 51 | 312 | 0.0 | 0.0 | 0.08 | 0.22 | 0.19 | 1 | 1003.5 |
| 20260506060146 | 51 | 47 | 0.0 | 0.0 | 0.08 | 0.20 | 0.17 | 1 | 1003.4 |
| 20260506044530 | 51 | 47 | 0.0 | 0.0 | 0.07 | 0.10 | 0.07 | 1 | 1002.8 |
| 20260506043049 | 51 | 47 | 0.0 | 0.0 | 0.05 | 0.08 | 0.05 | 1 | 1002.8 |
| 20260506041630 | 51 | 47 | 0.0 | 0.0 | 0.03 | 0.08 | 0.03 | 1 | 1002.8 |
| 20260506040056 | 51 | 47 | 0.0 | 0.0 | 0.02 | 0.06 | 0.02 | 1 | 1002.8 |
| 20260506034542 | 51 | 47 | 0.0 | 0.0 | 0.00 | 0.05 | 0.00 | 1 | 1002.8 |
| 20260506034508 | 51 | 47 | 0.0 | 0.0 | 0.00 | 0.05 | 0.00 | 1 | 1002.8 |